This is the latest recevied weather packets stored in our database for station/object KU9TRY. If no packets are shown the sender has not sent any weather packets the latest 10 day(s).
| Time | Temp. | Humidity | Pressure | Rain* | Wind** | Luminosity | Snow |
|---|---|---|---|---|---|---|---|
| 1787859543 | 31.11° C | 51% | 1014.6 hPa | 0 mm | - | 94 W/m² | - |
| 1787859243 | 31.11° C | 53% | 1014.7 hPa | 0 mm | - | 113 W/m² | - |
| 1787858939 | 31.67° C | 50% | 1014.7 hPa | 0 mm | - | 106 W/m² | - |
| 1787858635 | 31.67° C | 50% | 1014.8 hPa | 0 mm | - | 126 W/m² | - |
| 1787858330 | 31.67° C | 52% | 1014.6 hPa | 0 mm | - | 148 W/m² | - |
| 1787858025 | 31.67° C | 50% | 1014.6 hPa | 0 mm | - | 149 W/m² | - |
| 1787857720 | 31.67° C | 53% | 1014.8 hPa | 0 mm | - | 153 W/m² | - |
| 1787857417 | 31.11° C | 50% | 1014.8 hPa | 0 mm | - | 160 W/m² | - |
| 1787857115 | 31.11° C | 50% | 1014.9 hPa | 0 mm | - | 157 W/m² | - |
| 1787856810 | 30.56° C | 51% | 1015 hPa | 0 mm | - | 161 W/m² | - |
| 1787856510 | 30.56° C | 49% | 1014.9 hPa | 0 mm | - | 133 W/m² | - |
| 1787856205 | 31.11° C | 52% | 1015.1 hPa | 0 mm | - | 135 W/m² | - |
| 1787855905 | 31.11° C | 52% | 1015.1 hPa | 0 mm | - | 139 W/m² | - |
| 1787855601 | 30.56° C | 52% | 1015.1 hPa | 0 mm | - | 122 W/m² | - |
| 1787855296 | 30.56° C | 51% | 1015.2 hPa | 0 mm | - | 150 W/m² | - |
| 1787854992 | 30.56° C | 53% | 1015.4 hPa | 0 mm | - | 122 W/m² | - |
| 1787854687 | 30.56° C | 54% | 1015.4 hPa | 0 mm | - | 234 W/m² | - |
| 1787854381 | 30.56° C | 54% | 1015.3 hPa | 0 mm | - | 154 W/m² | - |
| 1787854081 | 30.56° C | 52% | 1015.6 hPa | 0 mm | - | 117 W/m² | - |
| 1787853780 | 30.56° C | 50% | 1015.6 hPa | 0 mm | - | 118 W/m² | - |
| 1787853479 | 30.56° C | 49% | 1015.6 hPa | 0 mm | - | 112 W/m² | - |
| 1787853174 | 31.11° C | 49% | 1015.8 hPa | 0 mm | - | 932 W/m² | - |
| 1787852869 | 31.11° C | 52% | 1015.8 hPa | 0 mm | - | 319 W/m² | - |
| 1787852568 | 30.56° C | 51% | 1015.9 hPa | 0 mm | - | 949 W/m² | - |
| 1787852267 | 30.56° C | 50% | 1015.8 hPa | 0 mm | - | 946 W/m² | - |
* Rain latest hour (hover to see other rain measurements)
** Current wind speed in m/s (hover to see current wind gust speed)